FW9535 Weather Reports


Display with metric or nautical units.
time (UTC)temp
F
wind
direction
speed
MPH
gust
MPH
rain 1hr
in
rain 24hr
in
rain mn
in
humidity
%
barometer
mb
20260906044804 71 159 5.0 6.0 0.00 0.00 0.00 59 1016.7
20260906043302 71 45 4.0 5.0 0.00 0.00 0.00 58 1016.2
20260906041757 72 316 1.0 1.0 0.00 0.00 0.00 56 1015.9
20260906040254 73 137 3.0 6.0 0.00 0.00 0.00 53 1015.9
20260906034751 72 96 2.0 5.0 0.00 0.00 0.00 55 1015.9
20260906033247 73 234 2.0 3.0 0.00 0.00 0.00 55 1015.3
20260906031744 75 186 7.0 9.0 0.00 0.00 0.00 50 1015.5
20260906030241 74 203 4.0 6.0 0.00 0.00 0.00 43 1015.0
20260906024739 76 176 5.0 7.0 0.00 0.00 0.00 41 1015.3
20260906023236 74 182 2.0 3.0 0.00 0.00 0.00 43 1015.2
20260906021734 75 194 2.0 3.0 0.00 0.00 0.00 45 1015.2
20260906020229 74 184 5.0 8.0 0.00 0.00 0.00 45 1015.2
20260906014728 75 303 1.0 1.0 0.00 0.00 0.00 44 1015.4
20260906013226 72 180 5.0 7.0 0.00 0.00 0.00 48 1015.3
20260906011722 73 199 4.0 6.0 0.00 0.00 0.00 46 1015.4
20260906010220 71 196 2.0 2.0 0.00 0.00 0.00 47 1015.7
20260906004719 70 234 5.0 8.0 0.00 0.00 0.00 47 1015.3
20260906003217 69 204 7.0 10.0 0.00 0.00 0.00 49 1015.1
20260906001713 69 185 7.0 14.0 0.00 0.00 0.00 49 1014.8
20260906000211 69 282 6.0 8.0 0.00 0.00 0.00 50 1014.5
20260905234705 68 304 5.0 10.0 0.00 0.00 0.00 52 1014.6
20260905233200 67 232 5.0 6.0 0.00 0.00 0.00 52 1014.6
20260905231658 66 202 7.0 9.0 0.00 0.00 0.00 53 1014.4
20260905230153 66 224 8.0 11.0 0.00 0.00 0.00 54 1014.3
20260905224653 65 194 10.0 11.0 0.00 0.00 0.00 55 1013.9
20260905223153 64 200 7.0 10.0 0.00 0.00 0.00 57 1013.8
20260905221649 62 215 4.0 6.0 0.00 0.00 0.00 58 1013.8
20260905220149 62 231 4.0 5.0 0.00 0.00 0.00 59 1013.8
20260905214646 61 227 8.0 11.0 0.00 0.00 0.00 60 1013.5
20260905213143 61 205 2.0 2.0 0.00 0.00 0.00 61 1013.0
20260905211638 59 261 2.0 3.0 0.00 0.00 0.00 62 1012.4
20260905210136 59 198 2.0 2.0 0.00 0.00 0.00 63 1012.3
20260905204635 58 171 6.0 8.0 0.00 0.00 0.00 62 1011.9
20260905203131 58 199 4.0 6.0 0.00 0.00 0.00 63 1012.0
20260905201630 58 197 7.0 9.0 0.00 0.00 0.00 62 1011.6
20260905200126 58 241 3.0 5.0 0.00 0.00 0.00 63 1011.2
20260905194626 57 219 3.0 5.0 0.00 0.00 0.00 65 1010.9
20260905193126 58 241 6.0 8.0 0.00 0.00 0.00 64 1010.6
20260905191623 58 223 11.0 15.0 0.00 0.00 0.00 63 1010.5
20260905190120 59 307 4.0 7.0 0.00 0.00 0.00 63 1010.5
20260905184620 58 233 10.0 13.0 0.00 0.00 0.00 64 1010.5
20260905183120 59 202 12.0 16.0 0.00 0.00 0.00 62 1010.0
20260905181619 58 199 6.0 7.0 0.00 0.00 0.00 64 1009.5
20260905180115 59 181 7.0 11.0 0.00 0.00 0.00 63 1009.6
20260905174611 59 157 5.0 7.0 0.00 0.00 0.00 62 1009.2
20260905173109 59 337 5.0 9.0 0.00 0.00 0.00 61 1008.6
20260905171606 59 216 11.0 14.0 0.00 0.00 0.00 63 1008.9
20260905170105 59 228 9.0 14.0 0.00 0.00 0.00 63 1008.1
20260905164601 59 252 4.0 7.0 0.00 0.00 0.00 64 1008.8
20260905163059 59 188 6.0 10.0 0.00 0.00 0.00 64 1009.2
20260905161554 59 181 7.0 10.0 0.00 0.00 0.00 64 1008.6
20260905160051 59 180 7.0 13.0 0.00 0.00 0.00 65 1008.4
20260905154551 59 210 6.0 9.0 0.00 0.00 0.00 64 1008.6
20260905153048 61 259 6.0 9.0 0.00 0.00 0.00 58 1009.0
20260905151544 61 211 9.0 13.0 0.00 0.00 0.00 58 1008.8
20260905150039 62 177 7.0 8.0 0.00 0.00 0.00 59 1009.1
20260905144538 63 185 9.0 14.0 0.00 0.00 0.00 60 1008.9
20260905143038 64 205 7.0 9.0 0.00 0.00 0.00 57 1008.6
20260905141538 64 164 5.0 8.0 0.00 0.00 0.00 56 1008.5
20260905140034 64 318 6.0 10.0 0.00 0.00 0.00 55 1008.0
20260905134531 64 350 5.0 8.0 0.00 0.00 0.00 54 1007.3
20260905133030 65 213 6.0 9.0 0.00 0.00 0.00 55 1007.4
20260905131526 65 232 5.0 6.0 0.00 0.00 0.00 57 1007.5
20260905130022 66 209 7.0 9.0 0.00 0.00 0.00 56 1007.0
20260905124519 66 237 6.0 9.0 0.00 0.00 0.00 56 1006.5
20260905123019 67 195 9.0 16.0 0.00 0.00 0.00 58 1006.5
20260905121514 67 205 10.0 11.0 0.00 0.00 0.00 58 1006.8
20260905120010 67 178 3.0 5.0 0.00 0.00 0.00 61 1006.9
20260905114509 67 211 2.0 3.0 0.00 0.00 0.00 61 1007.0
20260905113004 68 201 5.0 6.0 0.00 0.00 0.00 60 1006.9
20260905111500 69 328 9.0 13.0 0.00 0.00 0.00 58 1006.8
20260905110000 69 162 7.0 8.0 0.00 0.00 0.00 59 1006.9
20260905104456 69 214 5.0 9.0 0.00 0.00 0.00 61 1006.9
20260905102954 69 197 7.0 9.0 0.00 0.00 0.00 61 1006.7
20260905101449 70 305 4.0 6.0 0.00 0.00 0.00 60 1006.6
20260905095949 70 197 3.0 3.0 0.00 0.00 0.00 59 1006.3
20260905094446 71 209 5.0 8.0 0.00 0.00 0.00 58 1006.1
20260905092942 71 203 7.0 15.0 0.00 0.00 0.00 58 1006.0
20260905091438 72 236 6.0 8.0 0.00 0.00 0.00 56 1006.0
20260905085938 72 277 10.0 11.0 0.00 0.00 0.00 55 1006.2
20260905084439 72 210 6.0 8.0 0.00 0.00 0.00 54 1005.6
20260905082936 72 201 5.0 7.0 0.00 0.00 0.00 55 1005.6
20260905081433 72 196 4.0 6.0 0.00 0.00 0.00 55 1005.3
20260905075932 72 189 9.0 14.0 0.00 0.00 0.00 54 1005.3
20260905074427 72 323 7.0 9.0 0.00 0.00 0.00 53 1005.1
20260905072925 72 307 4.0 5.0 0.00 0.00 0.00 53 1005.2
20260905071425 72 307 9.0 11.0 0.00 0.00 0.00 54 1005.5
20260905065920 73 304 2.0 2.0 0.00 0.00 0.00 54 1005.5
20260905064420 74 233 2.0 3.0 0.00 0.00 0.00 54 1005.4
20260905062917 74 201 1.0 2.0 0.00 0.00 0.00 54 1005.3
20260905061412 71 238 5.0 7.0 0.00 0.00 0.00 57 1006.8
20260905055907 71 193 7.0 9.0 0.00 0.00 0.00 58 1008.2
20260905054404 74 187 5.0 8.0 0.00 0.00 0.00 54 1008.1
20260905052900 78 213 5.0 7.0 0.00 0.00 0.00 47 1007.4
20260905051355 81 172 4.0 5.0 0.00 0.00 0.00 44 1007.1